TimeCDT,TemperatureF,Dew PointF,Humidity,Sea Level PressureIn,VisibilityMPH,Wind Direction,Wind SpeedMPH,Gust SpeedMPH,PrecipitationIn,Events,Conditions,WindDirDegrees,DateUTC
12:15 AM,69.8,51.8,53,30.17,10.0,North,3.5,-,N/A,,Clear,360,2013-06-10 05:15:00
12:35 AM,69.8,51.8,53,30.18,10.0,Calm,Calm,-,N/A,,Clear,0,2013-06-10 05:35:00
12:55 AM,68.0,48.2,49,30.17,10.0,NNE,5.8,-,N/A,,Clear,30,2013-06-10 05:55:00
1:15 AM,68.0,48.2,49,30.17,10.0,NNE,6.9,-,N/A,,Clear,30,2013-06-10 06:15:00
1:35 AM,66.2,48.2,52,30.17,10.0,West,5.8,-,N/A,,Clear,260,2013-06-10 06:35:00
1:55 AM,69.8,50.0,49,30.16,10.0,ENE,3.5,-,N/A,,Clear,60,2013-06-10 06:55:00
2:15 AM,64.4,50.0,59,30.16,10.0,SSW,3.5,-,N/A,,Clear,210,2013-06-10 07:15:00
2:35 AM,64.4,51.8,64,30.16,10.0,WNW,5.8,-,N/A,,Clear,300,2013-06-10 07:35:00
2:55 AM,62.6,50.0,63,30.16,10.0,NW,5.8,-,N/A,,Clear,310,2013-06-10 07:55:00
3:15 AM,62.6,50.0,63,30.15,10.0,NW,5.8,-,N/A,,Clear,320,2013-06-10 08:15:00
3:35 AM,62.6,50.0,63,30.14,10.0,NW,6.9,-,N/A,,Clear,310,2013-06-10 08:35:00
3:55 AM,60.8,50.0,68,30.14,10.0,NNW,5.8,-,N/A,,Clear,340,2013-06-10 08:55:00
4:15 AM,59.0,50.0,72,30.14,10.0,NNW,4.6,-,N/A,,Clear,340,2013-06-10 09:15:00
4:35 AM,59.0,50.0,72,30.14,10.0,WNW,4.6,-,N/A,,Clear,300,2013-06-10 09:35:00
4:55 AM,57.2,50.0,77,30.14,10.0,Calm,Calm,-,N/A,,Clear,0,2013-06-10 09:55:00
5:15 AM,57.2,50.0,77,30.14,10.0,ENE,4.6,-,N/A,,Clear,70,2013-06-10 10:15:00
5:35 AM,57.2,48.2,72,30.15,10.0,NE,3.5,-,N/A,,Clear,50,2013-06-10 10:35:00
5:55 AM,60.8,51.8,72,30.15,10.0,East,5.8,-,N/A,,Clear,90,2013-06-10 10:55:00
6:15 AM,55.4,48.2,77,30.15,10.0,Calm,Calm,-,N/A,,Clear,0,2013-06-10 11:15:00
6:35 AM,55.4,48.2,77,30.15,10.0,NNE,3.5,-,N/A,,Clear,20,2013-06-10 11:35:00
6:55 AM,55.4,48.2,77,30.16,10.0,North,4.6,-,N/A,,Clear,350,2013-06-10 11:55:00
7:15 AM,55.4,48.2,77,30.17,10.0,WNW,5.8,-,N/A,,Clear,290,2013-06-10 12:15:00
7:35 AM,57.2,50.0,77,30.18,10.0,Calm,Calm,-,N/A,,Clear,0,2013-06-10 12:35:00
7:55 AM,60.8,51.8,72,30.18,10.0,North,4.6,-,N/A,,Clear,360,2013-06-10 12:55:00
8:15 AM,64.4,53.6,68,30.19,10.0,Calm,Calm,-,N/A,,Clear,0,2013-06-10 13:15:00
8:35 AM,66.2,55.4,68,30.20,10.0,ENE,3.5,-,N/A,,Clear,70,2013-06-10 13:35:00
8:55 AM,69.8,57.2,64,30.20,10.0,SE,5.8,-,N/A,,Clear,140,2013-06-10 13:55:00
9:15 AM,71.6,57.2,60,30.21,10.0,SSE,5.8,-,N/A,,Clear,160,2013-06-10 14:15:00
9:35 AM,73.4,59.0,61,30.21,10.0,SSE,6.9,-,N/A,,Clear,160,2013-06-10 14:35:00
9:55 AM,75.2,59.0,57,30.21,10.0,SE,9.2,-,N/A,,Clear,140,2013-06-10 14:55:00
10:15 AM,77.0,59.0,54,30.21,10.0,SSE,9.2,17.3,N/A,,Clear,160,2013-06-10 15:15:00
10:35 AM,77.0,57.2,50,30.21,10.0,South,8.1,-,N/A,,Clear,180,2013-06-10 15:35:00
10:55 AM,78.8,57.2,47,30.21,10.0,South,9.2,-,N/A,,Clear,170,2013-06-10 15:55:00
11:15 AM,80.6,57.2,45,30.21,10.0,SSW,10.4,-,N/A,,Clear,200,2013-06-10 16:15:00
11:35 AM,80.6,57.2,45,30.21,10.0,SSE,6.9,-,N/A,,Clear,160,2013-06-10 16:35:00
11:55 AM,82.4,53.6,37,30.21,10.0,SSE,8.1,-,N/A,,Clear,160,2013-06-10 16:55:00
12:15 PM,84.2,55.4,37,30.20,10.0,South,6.9,20.7,N/A,,Clear,170,2013-06-10 17:15:00
12:35 PM,84.2,55.4,37,30.19,10.0,SSE,10.4,-,N/A,,Clear,160,2013-06-10 17:35:00
12:55 PM,84.2,51.8,33,30.19,10.0,SSW,6.9,-,N/A,,Clear,200,2013-06-10 17:55:00
1:15 PM,86.0,48.2,27,30.18,10.0,South,4.6,-,N/A,,Clear,180,2013-06-10 18:15:00
1:35 PM,84.2,46.4,27,30.18,10.0,East,4.6,-,N/A,,Clear,100,2013-06-10 18:35:00
1:55 PM,87.8,48.2,25,30.17,10.0,South,10.4,17.3,N/A,,Clear,170,2013-06-10 18:55:00
2:15 PM,87.8,46.4,24,30.16,10.0,ESE,11.5,-,N/A,,Scattered Clouds,110,2013-06-10 19:15:00
2:35 PM,89.6,48.2,24,30.16,10.0,South,4.6,-,N/A,,Partly Cloudy,190,2013-06-10 19:35:00
2:55 PM,87.8,46.4,24,30.15,10.0,SSE,11.5,-,N/A,,Partly Cloudy,160,2013-06-10 19:55:00
3:15 PM,89.6,46.4,22,30.15,10.0,NE,6.9,-,N/A,,Partly Cloudy,50,2013-06-10 20:15:00
3:35 PM,87.8,46.4,24,30.14,10.0,ESE,8.1,-,N/A,,Clear,110,2013-06-10 20:35:00
3:55 PM,89.6,46.4,22,30.14,10.0,SE,5.8,-,N/A,,Clear,130,2013-06-10 20:55:00
4:15 PM,89.6,46.4,22,30.13,10.0,WNW,5.8,-,N/A,,Partly Cloudy,290,2013-06-10 21:15:00
4:35 PM,91.4,46.4,21,30.12,10.0,SSW,4.6,-,N/A,,Scattered Clouds,210,2013-06-10 21:35:00
4:55 PM,89.6,46.4,22,30.11,10.0,SW,6.9,16.1,N/A,,Partly Cloudy,230,2013-06-10 21:55:00
5:15 PM,91.4,46.4,21,30.11,10.0,South,9.2,-,N/A,,Scattered Clouds,180,2013-06-10 22:15:00
5:35 PM,91.4,44.6,20,30.10,10.0,East,9.2,-,N/A,,Partly Cloudy,100,2013-06-10 22:35:00
5:55 PM,91.4,44.6,20,30.10,10.0,South,10.4,16.1,N/A,,Clear,170,2013-06-10 22:55:00
6:15 PM,91.4,42.8,18,30.09,10.0,SSE,4.6,18.4,N/A,,Clear,160,2013-06-10 23:15:00
6:35 PM,91.4,39.2,16,30.09,10.0,East,6.9,20.7,N/A,,Clear,100,2013-06-10 23:35:00
6:55 PM,91.4,37.4,15,30.09,10.0,ENE,10.4,-,N/A,,Clear,70,2013-06-10 23:55:00
7:15 PM,89.6,35.6,15,30.08,10.0,ENE,10.4,-,N/A,,Clear,60,2013-06-11 00:15:00
7:35 PM,89.6,37.4,16,30.09,10.0,NE,10.4,-,N/A,,Clear,50,2013-06-11 00:35:00
7:55 PM,87.8,39.2,18,30.09,10.0,East,12.7,24.2,N/A,,Clear,90,2013-06-11 00:55:00
8:15 PM,86.0,39.2,19,30.09,10.0,ESE,18.4,23.0,N/A,,Clear,120,2013-06-11 01:15:00
8:35 PM,84.2,41.0,22,30.09,10.0,ESE,18.4,-,N/A,,Clear,120,2013-06-11 01:35:00
8:55 PM,82.4,41.0,23,30.10,10.0,ESE,17.3,-,N/A,,Clear,120,2013-06-11 01:55:00
9:15 PM,80.6,42.8,26,30.10,10.0,ESE,15.0,-,N/A,,Clear,120,2013-06-11 02:15:00
9:35 PM,78.8,42.8,28,30.11,10.0,ESE,15.0,-,N/A,,Clear,120,2013-06-11 02:35:00
9:55 PM,78.8,46.4,32,30.12,10.0,ESE,15.0,21.9,N/A,,Clear,120,2013-06-11 02:55:00
10:15 PM,75.2,46.4,36,30.13,10.0,ESE,15.0,20.7,N/A,,Clear,120,2013-06-11 03:15:00
10:35 PM,75.2,46.4,36,30.14,10.0,ESE,17.3,21.9,N/A,,Clear,110,2013-06-11 03:35:00
10:55 PM,75.2,48.2,38,30.15,10.0,ESE,15.0,-,N/A,,Clear,110,2013-06-11 03:55:00
11:15 PM,73.4,50.0,44,30.16,10.0,ESE,12.7,-,N/A,,Clear,120,2013-06-11 04:15:00
11:35 PM,73.4,51.8,47,30.17,10.0,ESE,12.7,17.3,N/A,,Clear,110,2013-06-11 04:35:00
11:55 PM,71.6,53.6,53,30.17,10.0,ESE,13.8,17.3,N/A,,Clear,110,2013-06-11 04:55:00